STARLINK-32486, 61854

Orbit data source: Space-Track

STARLINK-32486, 61854 is a payload satellite owned by SpaceX/Seattle (US) in LEO that was launched on Thu, 07 Nov 2024 UTC via an FALCON 9 launch vehicle from the Air Force Eastern Test Range (AFETR). Payload-class satellites include a variety of spacecraft equipped with specific instruments for various scientific and technological missions. These include communications satellites like Starlink; space stations such as the ISS; scientific satellites like the Hubble; Earth observation satellites from companies like Planet Labs, Umbra, and HawkEye 360; GPS; miniature CubeSats for education and research; and military/defense satellites.

Loading next visibility...
Identifier
61854, 2024-202K
Orbit
LEO
Country
Flag of USUS
Related business
Manufacturer
SpaceX/Seattle
Mission
Operational Commercial Communications
Bus & Motor
STARLINK V2M, Unknown motor
Mass
730 kg wet, ~700 kg dry
Launch date (UTC)
2024-11-07 (1 year ago)
Launch vehicle
FALCON 9
Launch site
Air Force Eastern Test Range (AFETR)
Object type
Payload
Rocket body
Debris
Shape & HBR
Box + 2 Pan, 17.7 m
Radar Cross Section
33.884 m², Large (>1 m²)

Expand to show TLE details & history
Last TLE update: 11 hours ago

TLE from 11 hours ago
0 STARLINK-32486
1 61854U 24202K   26035.10331219  .00003113  00000-0  12267-3 0  9999
2 61854  42.9972  67.4357 0001624 269.7338  90.3328 15.27562885 70205
Epoch: 2026-02-04T02:28Z
TLE epoch observation values (Epoch: 2026-02-04T02:28:46.173Z)
Latitude
0.00003°
Longitude
-104.03136°
Altitude
482.882 km
Speed
7.626 km/s
True Right ascension
04h 29m 44s
True Declination
0° 00' 00"
Sunlit
Object was in daylight at epoch
Visualization orbit readout
Latitude
Unknown
Longitude
Unknown
Altitude
Unknown
Speed
Unknown
Apparent Right ascension
Unknown
Apparent Declination
Unknown
Sunlit
N/A
Visualization observer readout
Local Sidereal Time
15:54:58
Azimuth
Unknown
Elevation
Unknown
Doppler factor
Unknown
Orbital elements
Apogee altitude
486.161 km
Perigee altitude
483.931 km
Semi-major axis
6,863.183 km
Eccentricity
0.00016
Inclination
42.9972°
RAAN
67.4357°
Arg. of periapsis
269.7338°
True anomaly
90.35141°
Mean anomaly
90.3328°
Eccentric anomaly
90.3421°
Mean motion
3.81729 °/min
Orbital period
94.31 mins
BSTAR
0.00012267
Loading maneuver chart data...
Computing Atmospheric mass density...
Loading historical data...
Loading historical data...
Loading historical data...
Loading historical data...
Loading historical data...
Loading historical data...
Loading historical data...

Documentation

Showing up to 5 results
|